Location: Fort Worth, Tx
(32.7431°N, 97.3695°W)
Time: 23:50:03
(UTC-04:00)

Vanguard 2 - Pass Details

Date: 27 February 2024
Orbit: 552 x 2916 km, 32.9° (Epoch: 24 April)

Event Time Altitude Azimuth Distance (km) Brightness Sun altitude
Rises 23:15:51 0° 277° (W) 5,061 12.3 -48.2°
Reaches altitude 10° 23:18:41 10° 277° (W) 4,334 11.8 -48.7°
Enters shadow 23:28:16 63° 272° (W) 2,643 10.0 -50.5°
